Tracking 19827 objects as of 22-Aug-2019
HD Live streaming from Space Station
objects crossing your sky now

FENGYUN 1C DEB

Track FENGYUN 1C DEB now!
10-day predictions


NORAD ID: 30464
Int'l Code: 1999-025AGB
Perigee: 789.2 km
Apogee: 947.5 km
Inclination: 99.1 °
Period: 102.2 minutes
Semi major axis: 7239 km
RCS: 0.029 m2 (small)
Launch date: May 10, 1999
Source: People's Republic of China (PRC)
Launch site: Taiyaun Space Center, China (TSC)

Note: This is SATELLITE DEBRIS
aabbcc
Your satellite tracking list
Your tracking list is empty




NASA's NSSDC Master Catalog

Two Line Element Set (TLE):
1 30464U 99025AGB 19233.05775942  .00000061  00000-0  58758-4 0  9993
2 30464  99.1369 251.7157 0109288 254.1890 127.3324 14.09464205646554
Source of the keplerian elements: AFSPC